sat.trackr.live / text

‹ back to catalog

FLOCK 4G-15

NORAD 62678 · 2025-009BX

PAYLOAD ACTIVE UNKNOWN

§ Identity

Operator
Country
US
Launch date
2025-01-14
Launch site
AFWTR
Launch vehicle
Mass (kg)
RCS (m²)

Purposes: earth_obs

External: N2YO · Heavens-Above · Gunter

§ Orbital elements

Epoch: 2026-05-25T04:47:45.386304Z

Period
94.19 min
Inclination
97.4017°
Eccentricity
0.0005569
Mean motion
15.28847359 rev/d
Perigee alt
475.4 km
Apogee alt
483.1 km
Semi-major
6,857.4 km
B*
3.5051e-4
RAAN
227.1909°
Arg perigee
54.8787°
Mean anomaly
305.2974°
Rev number
13,303

§ Raw data

FLOCK 4G-151 62678U 25009BX  26145.19983086  .00009757  00000+0  35051-3 0  99912 62678  97.4017 227.1909 0005569  54.8787 305.2974 15.28847359133035

JSON: /api/v1/satellites/62678 · /tle

For live sub-satellite position, see the globe view (requires WebGL).

§ Visibility from observer

Set your observer location to see the next 7 days of passes ≥ 10°. The values pass through the URL so the page stays shareable.

No JS? Fill the form by hand. The geolocation button needs JavaScript.